,,,PA_Meas_PMT16A,,PR_Meas_QMR101_102,,RH_Meas_QMH101,,SR_Meas_QMS101,,TA_Meas_QMH101,,GenWind,,GenWind,
date,time,status,PA,status,PR,status,RH,status,SR,status,TA,status,DirAvg,status,SpdAvg,
2010-08-31, 00:00:04,VALID,1005.45,VALID,0,INVALID,121.704,VALID,0,VALID,23.8185,VALID,71,VALID,0.218359,
2010-08-31, 00:01:04,VALID,1005.44,VALID,0,INVALID,121.726,VALID,0,VALID,23.7796,VALID,71,VALID,0.35,
2010-08-31, 00:02:04,VALID,1005.45,VALID,0,INVALID,121.696,VALID,0,VALID,23.7407,VALID,71,VALID,0.118359,
2010-08-31, 00:03:04,VALID,1005.45,VALID,0,INVALID,121.658,VALID,0,VALID,23.7425,VALID,71,VALID,0,
2010-08-31, 00:04:04,VALID,1005.4,VALID,0,INVALID,121.635,VALID,0,VALID,23.7017,VALID,71,VALID,0.209375,
2010-08-31, 00:05:04,VALID,1005.39,VALID,0,INVALID,121.612,VALID,0,VALID,23.6823,VALID,71,VALID,0,
2010-08-31, 00:06:04,VALID,1005.41,VALID,0,INVALID,121.574,VALID,0,VALID,23.6628,VALID,71,VALID,0,
2010-08-31, 00:07:04,VALID,1005.39,VALID,0,INVALID,121.467,VALID,0,VALID,23.6823,VALID,71,VALID,0,
2010-08-31, 00:08:04,VALID,1005.39,VALID,0,INVALID,121.444,VALID,0,VALID,23.6823,VALID,71,VALID,0,
2010-08-31, 00:09:04,VALID,1005.39,VALID,0,INVALID,121.391,VALID,0,VALID,23.6628,VALID,71,VALID,0.0785156,
2010-08-31, 00:10:04,VALID,1005.4,VALID,0,INVALID,121.437,VALID,0,VALID,23.6434,VALID,71,VALID,0.279297,
2010-08-31, 00:11:04,VALID,1005.38,VALID,0,INVALID,121.421,VALID,0,VALID,23.6044,VALID,71,VALID,0.3125,
2010-08-31, 00:12:04,VALID,1005.4,VALID,0,INVALID,121.406,VALID,0,VALID,23.5637,VALID,71,VALID,0.00585938,
2010-08-31, 00:13:04,VALID,1005.41,VALID,0,INVALID,121.375,VALID,0,VALID,23.5655,VALID,71,VALID,0.102344,
2010-08-31, 00:14:04,VALID,1005.41,VALID,0,INVALID,121.368,VALID,0,VALID,23.5655,VALID,71,VALID,0,
2010-08-31, 00:15:04,VALID,1005.41,VALID,0,INVALID,121.322,VALID,0,VALID,23.5655,VALID,71,VALID,0,
2010-08-31, 00:16:04,VALID,1005.44,VALID,0,INVALID,121.299,VALID,0,VALID,23.5655,VALID,71,VALID,0.00429688,
2010-08-31, 00:17:04,VALID,1005.43,VALID,0,INVALID,121.238,VALID,0.100563,VALID,23.5655,VALID,71,VALID,0.03125,
2010-08-31, 00:18:04,VALID,1005.42,VALID,0,INVALID,121.17,VALID,0,VALID,23.5248,VALID,71,VALID,0,
2010-08-31, 00:19:04,VALID,1005.43,VALID,0,INVALID,121.139,VALID,0,VALID,23.546,VALID,71,VALID,0,
2010-08-31, 00:20:04,VALID,1005.41,VALID,0,INVALID,121.116,VALID,0,VALID,23.546,VALID,71,VALID,0,
2010-08-31, 00:21:04,VALID,1005.38,VALID,0,INVALID,121.063,VALID,0,VALID,23.5655,VALID,71,VALID,0.0851562,
2010-08-31, 00:22:04,VALID,1005.36,VALID,0,INVALID,120.956,VALID,0,VALID,23.5655,VALID,71,VALID,0.2,
2010-08-31, 00:23:04,VALID,1005.37,VALID,0,INVALID,120.933,VALID,0.100563,VALID,23.5655,VALID,71,VALID,0.0015625,
2010-08-31, 00:24:04,VALID,1005.31,VALID,0,INVALID,120.872,VALID,0,VALID,23.5655,VALID,71,VALID,0.145313,
2010-08-31, 00:25:04,VALID,1005.3,VALID,0,INVALID,120.895,VALID,0,VALID,23.5655,VALID,71,VALID,0.0621094,
2010-08-31, 00:26:04,VALID,1005.29,VALID,0,INVALID,120.902,VALID,0,VALID,23.5655,VALID,71,VALID,0.172656,
2010-08-31, 00:27:04,VALID,1005.24,VALID,0,INVALID,120.91,VALID,0,VALID,23.5655,VALID,71,VALID,0.0347656,
2010-08-31, 00:28:04,VALID,1005.21,VALID,0,INVALID,120.918,VALID,0,VALID,23.546,VALID,71,VALID,0,
2010-08-31, 00:29:04,VALID,1005.18,VALID,0,INVALID,120.918,VALID,0,VALID,23.546,VALID,71,VALID,0.205469,
2010-08-31, 00:30:04,VALID,1005.14,VALID,0,INVALID,120.811,VALID,0,VALID,23.5655,VALID,71,VALID,0.198437,
2010-08-31, 00:31:04,VALID,1005.12,VALID,0,INVALID,120.742,VALID,0.100563,VALID,23.5655,VALID,71,VALID,0,
2010-08-31, 00:32:04,VALID,1005.11,VALID,0,INVALID,120.681,VALID,0,VALID,23.5637,VALID,71,VALID,0.251172,
2010-08-31, 00:33:04,VALID,1005.09,VALID,0,INVALID,120.597,VALID,0,VALID,23.6239,VALID,71,VALID,0.261719,
2010-08-31, 00:34:04,VALID,1005.07,VALID,0,INVALID,120.597,VALID,0,VALID,23.6434,VALID,71,VALID,0.271094,
2010-08-31, 00:35:04,VALID,1005.05,VALID,0,INVALID,120.613,VALID,0,VALID,23.6239,VALID,71,VALID,0.187891,
2010-08-31, 00:36:04,VALID,1005.1,VALID,0,INVALID,120.62,VALID,0,VALID,23.6646,VALID,71,VALID,0.254687,
2010-08-31, 00:37:04,VALID,1005.06,VALID,0,INVALID,120.697,VALID,0.100563,VALID,23.6239,VALID,71,VALID,0,
2010-08-31, 00:38:04,VALID,1005.08,VALID,0,INVALID,120.475,VALID,0,VALID,23.7035,VALID,71,VALID,0,
2010-08-31, 00:39:04,VALID,1005.04,VALID,0,INVALID,120.506,VALID,0,VALID,23.7017,VALID,71,VALID,0,
2010-08-31, 00:40:04,VALID,1005.02,VALID,0,INVALID,120.552,VALID,0,VALID,23.723,VALID,71,VALID,0,
2010-08-31, 00:41:04,VALID,1004.98,VALID,0,INVALID,120.582,VALID,0,VALID,23.7212,VALID,71,VALID,0,
2010-08-31, 00:42:04,VALID,1004.96,VALID,0,INVALID,120.712,VALID,0,VALID,23.7017,VALID,71,VALID,0,
2010-08-31, 00:43:04,VALID,1004.9,VALID,0,INVALID,120.819,VALID,0,VALID,23.661,VALID,71,VALID,0,
2010-08-31, 00:44:04,VALID,1004.9,VALID,0,INVALID,120.902,VALID,0,VALID,23.6841,VALID,71,VALID,0,
2010-08-31, 00:45:04,VALID,1004.87,VALID,0,INVALID,120.925,VALID,0,VALID,23.6434,VALID,71,VALID,0.0519531,
2010-08-31, 00:46:04,VALID,1004.85,VALID,0,INVALID,120.933,VALID,0,VALID,23.6841,VALID,71,VALID,0,
2010-08-31, 00:47:04,VALID,1004.87,VALID,0,INVALID,120.971,VALID,0,VALID,23.6434,VALID,71,VALID,0.000390625,
2010-08-31, 00:48:04,VALID,1004.87,VALID,0,INVALID,120.78,VALID,0,VALID,23.723,VALID,71,VALID,0,
2010-08-31, 00:49:04,VALID,1004.86,VALID,0,INVALID,120.658,VALID,0,VALID,23.7814,VALID,71,VALID,0,
2010-08-31, 00:50:04,VALID,1004.9,VALID,0,INVALID,120.75,VALID,0,VALID,23.7796,VALID,71,VALID,0,
2010-08-31, 00:51:04,VALID,1004.91,VALID,0,INVALID,120.796,VALID,0,VALID,23.8009,VALID,71,VALID,0,
2010-08-31, 00:52:04,VALID,1004.89,VALID,0,INVALID,120.864,VALID,0,VALID,23.8009,VALID,71,VALID,0,
2010-08-31, 00:53:04,VALID,1004.9,VALID,0,INVALID,120.765,VALID,0,VALID,23.8787,VALID,71,VALID,0,
2010-08-31, 00:54:04,VALID,1004.89,VALID,0,INVALID,120.666,VALID,0,VALID,23.9177,VALID,43,VALID,0.825,
2010-08-31, 00:55:04,VALID,1004.89,VALID,0,INVALID,120.712,VALID,0,VALID,23.9919,VALID,41,VALID,0.507813,
2010-08-31, 00:56:04,VALID,1004.88,VALID,0,INVALID,121.055,VALID,0,VALID,23.9937,VALID,37,VALID,0.419141,
2010-08-31, 00:57:04,VALID,1004.89,VALID,0,INVALID,121.108,VALID,0,VALID,24.0521,VALID,1,VALID,0.528125,
2010-08-31, 00:58:04,VALID,1004.85,VALID,0,INVALID,121.467,VALID,0,VALID,24.0716,VALID,2,VALID,0.406641,
2010-08-31, 00:59:04,VALID,1004.84,VALID,0,INVALID,121.635,VALID,0,VALID,24.091,VALID,2,VALID,0.705469,
2010-08-31, 01:00:04,VALID,1004.84,VALID,0,INVALID,121.78,VALID,0,VALID,24.0697,VALID,357,VALID,0.986719,
2010-08-31, 01:01:04,VALID,1004.79,VALID,0,INVALID,121.841,VALID,0,VALID,24.13,VALID,359,VALID,0.833594,
2010-08-31, 01:02:04,VALID,1004.76,VALID,0,INVALID,121.795,VALID,0,VALID,24.1476,VALID,339,VALID,0.535937,
2010-08-31, 01:03:04,VALID,1004.77,VALID,0,INVALID,121.978,VALID,0,VALID,24.2662,VALID,339,VALID,0.461719,
2010-08-31, 01:04:04,VALID,1004.8,VALID,0,INVALID,122.032,VALID,0,VALID,24.2839,VALID,339,VALID,0.502734,
2010-08-31, 01:05:04,VALID,1004.81,VALID,0,INVALID,122.001,VALID,0,VALID,24.2644,VALID,341,VALID,0.577344,
2010-08-31, 01:06:04,VALID,1004.82,VALID,0,INVALID,121.955,VALID,0,VALID,24.3052,VALID,342,VALID,0.186328,
2010-08-31, 01:07:04,VALID,1004.85,VALID,0,INVALID,121.925,VALID,0.100563,VALID,24.3052,VALID,342,VALID,0.153516,
2010-08-31, 01:08:04,VALID,1004.85,VALID,0,INVALID,121.833,VALID,0,VALID,24.2662,VALID,342,VALID,0.0867188,
2010-08-31, 01:09:04,VALID,1004.84,VALID,0,INVALID,121.765,VALID,0,VALID,24.2486,VALID,342,VALID,0.0046875,
2010-08-31, 01:10:04,VALID,1004.81,VALID,0,INVALID,121.772,VALID,0,VALID,24.1884,VALID,342,VALID,0.240234,
2010-08-31, 01:11:04,VALID,1004.78,VALID,0,INVALID,121.803,VALID,0,VALID,24.1689,VALID,342,VALID,0,
2010-08-31, 01:12:04,VALID,1004.74,VALID,0,INVALID,121.818,VALID,0,VALID,24.13,VALID,342,VALID,0.323828,
2010-08-31, 01:13:04,VALID,1004.74,VALID,0,INVALID,121.856,VALID,0,VALID,24.1105,VALID,342,VALID,0,
2010-08-31, 01:14:04,VALID,1004.71,VALID,0,INVALID,121.887,VALID,0,VALID,24.0716,VALID,342,VALID,0,
2010-08-31, 01:15:05,VALID,1004.71,VALID,0,INVALID,121.925,VALID,0,VALID,24.0716,VALID,342,VALID,0,
2010-08-31, 01:16:05,VALID,1004.74,VALID,0,INVALID,121.94,VALID,0,VALID,24.0716,VALID,342,VALID,0,
2010-08-31, 01:17:05,VALID,1004.76,VALID,0,INVALID,121.978,VALID,0,VALID,24.0929,VALID,342,VALID,0.362891,
2010-08-31, 01:18:05,VALID,1004.8,VALID,0,INVALID,121.963,VALID,0,VALID,24.0929,VALID,230,VALID,0.381641,
2010-08-31, 01:19:05,VALID,1004.77,VALID,0,INVALID,121.971,VALID,0,VALID,24.1123,VALID,230,VALID,0,
2010-08-31, 01:20:05,VALID,1004.78,VALID,0,INVALID,121.993,VALID,0,VALID,24.0308,VALID,142,VALID,0.145313,
2010-08-31, 01:21:05,VALID,1004.79,VALID,0,INVALID,121.971,VALID,0,VALID,24.0539,VALID,142,VALID,0,
2010-08-31, 01:22:05,VALID,1004.76,VALID,0,INVALID,121.963,VALID,0,VALID,24.0326,VALID,142,VALID,0,
2010-08-31, 01:23:05,VALID,1004.72,VALID,0,INVALID,121.971,VALID,0,VALID,23.9724,VALID,142,VALID,0,
2010-08-31, 01:24:05,VALID,1004.71,VALID,0,INVALID,121.971,VALID,0,VALID,23.9353,VALID,142,VALID,0.391406,
2010-08-31, 01:25:05,VALID,1004.69,VALID,0,INVALID,121.963,VALID,0,VALID,23.8769,VALID,59,VALID,0.575391,
2010-08-31, 01:26:05,VALID,1004.68,VALID,0,INVALID,121.925,VALID,0,VALID,23.8185,VALID,45,VALID,0.421484,
2010-08-31, 01:27:05,VALID,1004.67,VALID,0,INVALID,121.917,VALID,0,VALID,23.7796,VALID,39,VALID,0.726563,
2010-08-31, 01:28:05,VALID,1004.68,VALID,0,INVALID,121.887,VALID,0,VALID,23.7407,VALID,33,VALID,0.508594,
2010-08-31, 01:29:05,VALID,1004.68,VALID,0,INVALID,121.841,VALID,0,VALID,23.7,VALID,33,VALID,0.526953,
2010-08-31, 01:30:05,VALID,1004.7,VALID,0,INVALID,121.772,VALID,0,VALID,23.6823,VALID,29,VALID,0.564062,
2010-08-31, 01:31:05,VALID,1004.73,VALID,0,INVALID,121.734,VALID,0,VALID,23.6628,VALID,29,VALID,0.565625,
2010-08-31, 01:32:05,VALID,1004.71,VALID,0,INVALID,121.681,VALID,0,VALID,23.6239,VALID,13,VALID,0.697656,
2010-08-31, 01:33:05,VALID,1004.69,VALID,0,INVALID,121.543,VALID,0,VALID,23.6239,VALID,10,VALID,0.458984,
2010-08-31, 01:34:05,VALID,1004.73,VALID,0,INVALID,121.337,VALID,0,VALID,23.6646,VALID,10,VALID,0.217578,
2010-08-31, 01:35:05,VALID,1004.72,VALID,0,INVALID,121.337,VALID,0,VALID,23.6434,VALID,10,VALID,0.171094,
2010-08-31, 01:36:05,VALID,1004.69,VALID,0,INVALID,121.307,VALID,0,VALID,23.6434,VALID,10,VALID,0.371094,
2010-08-31, 01:37:05,VALID,1004.67,VALID,0,INVALID,121.116,VALID,0,VALID,23.6221,VALID,10,VALID,0,
2010-08-31, 01:38:05,VALID,1004.65,VALID,0,INVALID,120.956,VALID,0,VALID,23.6628,VALID,10,VALID,0,
2010-08-31, 01:39:05,VALID,1004.64,VALID,0,INVALID,120.941,VALID,0,VALID,23.6823,VALID,10,VALID,0,
2010-08-31, 01:40:05,VALID,1004.64,VALID,0,INVALID,120.841,VALID,0,VALID,23.7035,VALID,10,VALID,0.485547,
2010-08-31, 01:41:05,VALID,1004.65,VALID,0,INVALID,120.758,VALID,0,VALID,23.6823,VALID,10,VALID,0.539844,
2010-08-31, 01:42:05,VALID,1004.62,VALID,0,INVALID,120.88,VALID,0,VALID,23.6823,VALID,10,VALID,0.429688,
2010-08-31, 01:43:05,VALID,1004.64,VALID,0,INVALID,120.849,VALID,0,VALID,23.6434,VALID,10,VALID,0.690625,
2010-08-31, 01:44:05,VALID,1004.64,VALID,0,INVALID,120.78,VALID,0,VALID,23.6434,VALID,10,VALID,0.230078,
2010-08-31, 01:45:05,VALID,1004.64,VALID,0,INVALID,120.697,VALID,0,VALID,23.6628,VALID,10,VALID,0.546094,
2010-08-31, 01:46:05,VALID,1004.65,VALID,0,INVALID,120.735,VALID,0,VALID,23.6221,VALID,10,VALID,0.345313,
2010-08-31, 01:47:05,VALID,1004.65,VALID,0,INVALID,120.628,VALID,0,VALID,23.6239,VALID,10,VALID,0.298047,
2010-08-31, 01:48:05,VALID,1004.66,VALID,0,INVALID,120.582,VALID,0,VALID,23.6239,VALID,10,VALID,0.331641,
2010-08-31, 01:49:05,VALID,1004.65,VALID,0,INVALID,120.613,VALID,0,VALID,23.6239,VALID,10,VALID,0.357812,
2010-08-31, 01:50:05,VALID,1004.67,VALID,0,INVALID,120.491,VALID,0,VALID,23.6044,VALID,3,VALID,0.374609,
2010-08-31, 01:51:05,VALID,1004.65,VALID,0,INVALID,120.452,VALID,0,VALID,23.6434,VALID,9,VALID,0.633203,
2010-08-31, 01:52:05,VALID,1004.65,VALID,0,INVALID,120.414,VALID,0,VALID,23.6239,VALID,9,VALID,0.520703,
2010-08-31, 01:53:05,VALID,1004.64,VALID,0,INVALID,120.33,VALID,0,VALID,23.6239,VALID,9,VALID,0.528516,
2010-08-31, 01:54:05,VALID,1004.62,VALID,0,INVALID,120.346,VALID,0,VALID,23.6239,VALID,9,VALID,0.465234,
2010-08-31, 01:55:05,VALID,1004.64,VALID,0,INVALID,120.407,VALID,0,VALID,23.6044,VALID,9,VALID,0.420312,
2010-08-31, 01:56:05,VALID,1004.66,VALID,0,INVALID,120.43,VALID,0,VALID,23.5655,VALID,4,VALID,0.571875,
2010-08-31, 01:57:05,VALID,1004.61,VALID,0,INVALID,120.552,VALID,0,VALID,23.5071,VALID,4,VALID,0.433594,
2010-08-31, 01:58:05,VALID,1004.63,VALID,0,INVALID,120.368,VALID,0,VALID,23.5266,VALID,4,VALID,0.435156,
2010-08-31, 01:59:05,VALID,1004.63,VALID,0,INVALID,120.346,VALID,0,VALID,23.5266,VALID,342,VALID,0.508203,
2010-08-31, 02:00:05,VALID,1004.66,VALID,0,INVALID,120.14,VALID,0,VALID,23.546,VALID,319,VALID,0.528516,
2010-08-31, 02:01:05,VALID,1004.64,VALID,0,INVALID,120.17,VALID,0,VALID,23.5266,VALID,337,VALID,0.116797,
2010-08-31, 02:02:05,VALID,1004.68,VALID,0,INVALID,120.178,VALID,0,VALID,23.5266,VALID,337,VALID,0,
2010-08-31, 02:03:05,VALID,1004.68,VALID,0,INVALID,120.132,VALID,0,VALID,23.5071,VALID,337,VALID,0,
2010-08-31, 02:04:05,VALID,1004.68,VALID,0,INVALID,120.048,VALID,0,VALID,23.5266,VALID,337,VALID,0,
2010-08-31, 02:05:05,VALID,1004.67,VALID,0,INVALID,119.987,VALID,0,VALID,23.5266,VALID,337,VALID,0,
2010-08-31, 02:06:05,VALID,1004.68,VALID,0,INVALID,119.918,VALID,0,VALID,23.5443,VALID,337,VALID,0,
2010-08-31, 02:07:05,VALID,1004.65,VALID,0,INVALID,119.88,VALID,0,VALID,23.5655,VALID,337,VALID,0,
2010-08-31, 02:08:05,VALID,1004.63,VALID,0,INVALID,119.865,VALID,0,VALID,23.546,VALID,337,VALID,0,
2010-08-31, 02:09:05,VALID,1004.64,VALID,0,INVALID,119.804,VALID,0,VALID,23.5248,VALID,337,VALID,0,
2010-08-31, 02:10:05,VALID,1004.61,VALID,0,INVALID,119.751,VALID,0,VALID,23.5443,VALID,337,VALID,0.463281,
2010-08-31, 02:11:05,VALID,1004.58,VALID,0,INVALID,119.796,VALID,0,VALID,23.5266,VALID,337,VALID,0.426562,
2010-08-31, 02:12:05,VALID,1004.56,VALID,0,INVALID,119.842,VALID,0,VALID,23.5071,VALID,337,VALID,0.407031,
2010-08-31, 02:13:05,VALID,1004.56,VALID,0,INVALID,119.865,VALID,0,VALID,23.4664,VALID,337,VALID,0.290234,
2010-08-31, 02:14:05,VALID,1004.55,VALID,0,INVALID,119.888,VALID,0,VALID,23.4682,VALID,337,VALID,0.410547,
2010-08-31, 02:15:05,VALID,1004.54,VALID,0,INVALID,119.895,VALID,0,VALID,23.4682,VALID,337,VALID,0.410547,
2010-08-31, 02:16:05,VALID,1004.53,VALID,0,INVALID,119.842,VALID,0,VALID,23.4487,VALID,337,VALID,0.394141,
2010-08-31, 02:17:05,VALID,1004.49,VALID,0,INVALID,119.865,VALID,0,VALID,23.4487,VALID,337,VALID,0.449609,
2010-08-31, 02:18:05,VALID,1004.47,VALID,0,INVALID,119.949,VALID,0,VALID,23.4311,VALID,337,VALID,0.374609,
2010-08-31, 02:19:05,VALID,1004.45,VALID,0,INVALID,119.987,VALID,0,VALID,23.3904,VALID,338,VALID,0.467187,
2010-08-31, 02:20:05,VALID,1004.45,VALID,0,INVALID,119.957,VALID,0,VALID,23.3497,VALID,337,VALID,0.463672,
2010-08-31, 02:21:05,VALID,1004.42,VALID,0,INVALID,119.895,VALID,0,VALID,23.3514,VALID,337,VALID,0.266016,
2010-08-31, 02:22:05,VALID,1004.4,VALID,0,INVALID,119.796,VALID,0,VALID,23.3497,VALID,337,VALID,0.397656,
2010-08-31, 02:23:05,VALID,1004.39,VALID,0,INVALID,119.667,VALID,0,VALID,23.3709,VALID,337,VALID,0.255859,
2010-08-31, 02:24:05,VALID,1004.38,VALID,0,INVALID,119.537,VALID,0,VALID,23.3904,VALID,337,VALID,0.337109,
2010-08-31, 02:25:05,VALID,1004.37,VALID,0,INVALID,119.453,VALID,0,VALID,23.4134,VALID,337,VALID,0,
2010-08-31, 02:26:05,VALID,1004.36,VALID,0,INVALID,119.422,VALID,0,VALID,23.3709,VALID,337,VALID,0,
2010-08-31, 02:27:05,VALID,1004.38,VALID,0,INVALID,119.384,VALID,0,VALID,23.3514,VALID,337,VALID,0,
2010-08-31, 02:28:05,VALID,1004.41,VALID,0,INVALID,119.361,VALID,0,VALID,23.3727,VALID,338,VALID,0,
2010-08-31, 02:29:05,VALID,1004.37,VALID,0,INVALID,119.331,VALID,0,VALID,23.3727,VALID,337,VALID,0,
2010-08-31, 02:30:05,VALID,1004.35,VALID,0,INVALID,119.308,VALID,0,VALID,23.3727,VALID,338,VALID,0,
2010-08-31, 02:31:05,VALID,1004.34,VALID,0,INVALID,119.171,VALID,0,VALID,23.3727,VALID,337,VALID,0,
2010-08-31, 02:32:05,VALID,1004.36,VALID,0,INVALID,119.041,VALID,0,VALID,23.3921,VALID,340,VALID,0,
2010-08-31, 02:33:05,VALID,1004.33,VALID,0,INVALID,118.942,VALID,0,VALID,23.4311,VALID,340,VALID,0,
2010-08-31, 02:34:05,VALID,1004.35,VALID,0,INVALID,118.858,VALID,0,VALID,23.4311,VALID,340,VALID,0,
2010-08-31, 02:35:05,VALID,1004.39,VALID,0,INVALID,118.835,VALID,0,VALID,23.4311,VALID,340,VALID,0,
2010-08-31, 02:36:05,VALID,1004.4,VALID,0,INVALID,118.736,VALID,0,VALID,23.47,VALID,340,VALID,0,
2010-08-31, 02:37:05,VALID,1004.41,VALID,0,INVALID,118.744,VALID,0.100563,VALID,23.447,VALID,340,VALID,0,
2010-08-31, 02:38:05,VALID,1004.45,VALID,0,INVALID,118.789,VALID,0,VALID,23.4293,VALID,340,VALID,0,
2010-08-31, 02:39:05,VALID,1004.45,VALID,0,INVALID,118.797,VALID,0,VALID,23.4293,VALID,340,VALID,0,
2010-08-31, 02:40:05,VALID,1004.48,VALID,0,INVALID,118.774,VALID,0,VALID,23.4293,VALID,340,VALID,0,
2010-08-31, 02:41:05,VALID,1004.49,VALID,0,INVALID,118.774,VALID,0.100563,VALID,23.408,VALID,340,VALID,0,
2010-08-31, 02:42:05,VALID,1004.47,VALID,0,INVALID,118.774,VALID,0,VALID,23.4293,VALID,340,VALID,0,
2010-08-31, 02:43:05,VALID,1004.51,VALID,0,INVALID,118.652,VALID,0,VALID,23.4682,VALID,340,VALID,0,
2010-08-31, 02:44:05,VALID,1004.5,VALID,0,INVALID,118.637,VALID,0,VALID,23.4877,VALID,340,VALID,0,
2010-08-31, 02:45:05,VALID,1004.5,VALID,0,INVALID,118.507,VALID,0,VALID,23.5284,VALID,340,VALID,0,
2010-08-31, 02:46:05,VALID,1004.51,VALID,0,INVALID,118.339,VALID,0,VALID,23.5868,VALID,340,VALID,0,
2010-08-31, 02:47:05,VALID,1004.49,VALID,0,INVALID,118.194,VALID,0.100563,VALID,23.6239,VALID,340,VALID,0,
2010-08-31, 02:48:05,VALID,1004.51,VALID,0,INVALID,118.042,VALID,0,VALID,23.6841,VALID,340,VALID,0,
2010-08-31, 02:49:05,VALID,1004.49,VALID,0,INVALID,118.011,VALID,0,VALID,23.6823,VALID,340,VALID,0,
2010-08-31, 02:50:05,VALID,1004.51,VALID,0,INVALID,118.034,VALID,0,VALID,23.7017,VALID,340,VALID,0,
2010-08-31, 02:51:05,VALID,1004.51,VALID,0,INVALID,118.034,VALID,0.100563,VALID,23.7212,VALID,340,VALID,0,
2010-08-31, 02:52:05,VALID,1004.51,VALID,0,INVALID,118.049,VALID,0,VALID,23.7212,VALID,340,VALID,0,
2010-08-31, 02:53:05,VALID,1004.52,VALID,0,INVALID,118.034,VALID,0,VALID,23.7212,VALID,340,VALID,0,
2010-08-31, 02:54:05,VALID,1004.52,VALID,0,INVALID,118.103,VALID,0,VALID,23.7425,VALID,340,VALID,0,
2010-08-31, 02:55:05,VALID,1004.54,VALID,0,INVALID,118.202,VALID,0,VALID,23.7017,VALID,340,VALID,0,
2010-08-31, 02:56:05,VALID,1004.57,VALID,0,INVALID,118.316,VALID,0,VALID,23.6823,VALID,340,VALID,0,
2010-08-31, 02:57:05,VALID,1004.59,VALID,0,INVALID,118.415,VALID,0,VALID,23.6628,VALID,340,VALID,0,
2010-08-31, 02:58:05,VALID,1004.59,VALID,0,INVALID,118.454,VALID,0,VALID,23.6434,VALID,340,VALID,0,
2010-08-31, 02:59:05,VALID,1004.55,VALID,0,INVALID,118.477,VALID,0,VALID,23.6434,VALID,340,VALID,0,
2010-08-31, 03:00:05,VALID,1004.51,VALID,0,INVALID,118.492,VALID,0,VALID,23.6646,VALID,340,VALID,0,
2010-08-31, 03:01:05,VALID,1004.51,VALID,0,INVALID,118.522,VALID,0,VALID,23.6221,VALID,340,VALID,0,
2010-08-31, 03:02:05,VALID,1004.5,VALID,0,INVALID,118.522,VALID,0,VALID,23.6628,VALID,340,VALID,0,
2010-08-31, 03:03:05,VALID,1004.46,VALID,0,INVALID,118.637,VALID,0,VALID,23.6239,VALID,340,VALID,0,
2010-08-31, 03:04:05,VALID,1004.47,VALID,0,INVALID,118.759,VALID,0,VALID,23.6044,VALID,340,VALID,0,
2010-08-31, 03:05:05,VALID,1004.45,VALID,0,INVALID,118.873,VALID,0,VALID,23.585,VALID,340,VALID,0,
2010-08-31, 03:06:05,VALID,1004.46,VALID,0,INVALID,118.965,VALID,0,VALID,23.546,VALID,340,VALID,0,
2010-08-31, 03:07:05,VALID,1004.44,VALID,0,INVALID,119.125,VALID,0,VALID,23.5284,VALID,340,VALID,0,
2010-08-31, 03:08:05,VALID,1004.43,VALID,0,INVALID,119.201,VALID,0,VALID,23.4682,VALID,340,VALID,0,
2010-08-31, 03:09:05,VALID,1004.42,VALID,0,INVALID,119.27,VALID,0,VALID,23.4505,VALID,340,VALID,0,
2010-08-31, 03:10:05,VALID,1004.4,VALID,0,INVALID,119.239,VALID,0.100563,VALID,23.4487,VALID,340,VALID,0,
2010-08-31, 03:11:05,VALID,1004.4,VALID,0,INVALID,119.27,VALID,0.100563,VALID,23.408,VALID,340,VALID,0,
2010-08-31, 03:12:05,VALID,1004.39,VALID,0,INVALID,119.308,VALID,0,VALID,23.3691,VALID,340,VALID,0,
2010-08-31, 03:13:05,VALID,1004.4,VALID,0,INVALID,119.346,VALID,0,VALID,23.3709,VALID,340,VALID,0,
2010-08-31, 03:14:05,VALID,1004.37,VALID,0,INVALID,119.323,VALID,0,VALID,23.3709,VALID,340,VALID,0,
2010-08-31, 03:15:05,VALID,1004.41,VALID,0,INVALID,119.331,VALID,0,VALID,23.3514,VALID,340,VALID,0,
2010-08-31, 03:16:05,VALID,1004.42,VALID,0,INVALID,119.346,VALID,0.100563,VALID,23.332,VALID,340,VALID,0,
2010-08-31, 03:17:05,VALID,1004.41,VALID,0,INVALID,119.3,VALID,0,VALID,23.2913,VALID,340,VALID,0,
2010-08-31, 03:18:05,VALID,1004.42,VALID,0,INVALID,119.11,VALID,0.100563,VALID,23.3709,VALID,340,VALID,0,
2010-08-31, 03:19:05,VALID,1004.4,VALID,0,INVALID,118.85,VALID,0,VALID,23.408,VALID,340,VALID,0,
2010-08-31, 03:20:05,VALID,1004.39,VALID,0,INVALID,118.675,VALID,0.100563,VALID,23.4682,VALID,340,VALID,0,
2010-08-31, 03:21:05,VALID,1004.42,VALID,0,INVALID,118.53,VALID,0,VALID,23.5266,VALID,35,VALID,0,
2010-08-31, 03:22:05,VALID,1004.41,VALID,0,INVALID,118.415,VALID,0.100563,VALID,23.546,VALID,35,VALID,0,
2010-08-31, 03:23:05,VALID,1004.41,VALID,0,INVALID,118.362,VALID,0,VALID,23.5655,VALID,35,VALID,0,
2010-08-31, 03:24:05,VALID,1004.38,VALID,0,INVALID,118.255,VALID,0.100563,VALID,23.5443,VALID,35,VALID,0,
2010-08-31, 03:25:05,VALID,1004.35,VALID,0,INVALID,118.24,VALID,0.100563,VALID,23.585,VALID,35,VALID,0,
2010-08-31, 03:26:05,VALID,1004.36,VALID,0,INVALID,118.248,VALID,0,VALID,23.5443,VALID,35,VALID,0,
2010-08-31, 03:27:05,VALID,1004.38,VALID,0,INVALID,118.316,VALID,0,VALID,23.5655,VALID,35,VALID,0,
2010-08-31, 03:28:05,VALID,1004.36,VALID,0,INVALID,118.37,VALID,0,VALID,23.5248,VALID,35,VALID,0,
2010-08-31, 03:29:05,VALID,1004.39,VALID,0,INVALID,118.385,VALID,0,VALID,23.5248,VALID,35,VALID,0,
2010-08-31, 03:30:05,VALID,1004.41,VALID,0,INVALID,118.393,VALID,0.100563,VALID,23.5248,VALID,35,VALID,0,
2010-08-31, 03:31:05,VALID,1004.4,VALID,0,INVALID,118.354,VALID,0.100563,VALID,23.5443,VALID,35,VALID,0,
2010-08-31, 03:32:05,VALID,1004.42,VALID,0,INVALID,118.271,VALID,0,VALID,23.5832,VALID,35,VALID,0,
2010-08-31, 03:33:05,VALID,1004.44,VALID,0,INVALID,118.202,VALID,0,VALID,23.6239,VALID,35,VALID,0,
2010-08-31, 03:34:05,VALID,1004.44,VALID,0,INVALID,118.087,VALID,0.100563,VALID,23.6434,VALID,35,VALID,0,
2010-08-31, 03:35:05,VALID,1004.45,VALID,0,INVALID,118.026,VALID,0.100563,VALID,23.661,VALID,35,VALID,0,
2010-08-31, 03:36:05,VALID,1004.49,VALID,0,INVALID,118.026,VALID,0,VALID,23.661,VALID,35,VALID,0,
2010-08-31, 03:37:05,VALID,1004.46,VALID,0,INVALID,117.973,VALID,0.100563,VALID,23.7,VALID,35,VALID,0,
2010-08-31, 03:38:05,VALID,1004.46,VALID,0,INVALID,117.965,VALID,0,VALID,23.7,VALID,35,VALID,0,
2010-08-31, 03:39:05,VALID,1004.48,VALID,0,INVALID,117.958,VALID,0.100563,VALID,23.7,VALID,35,VALID,0,
2010-08-31, 03:40:05,VALID,1004.47,VALID,0,INVALID,117.958,VALID,0.100563,VALID,23.7194,VALID,35,VALID,0,
2010-08-31, 03:41:05,VALID,1004.47,VALID,0,INVALID,117.958,VALID,0.100563,VALID,23.7407,VALID,35,VALID,0,
2010-08-31, 03:42:05,VALID,1004.45,VALID,0,INVALID,117.988,VALID,0.100563,VALID,23.7194,VALID,35,VALID,0,
2010-08-31, 03:43:05,VALID,1004.45,VALID,0,INVALID,118.026,VALID,0,VALID,23.7,VALID,35,VALID,0,
2010-08-31, 03:44:05,VALID,1004.46,VALID,0,INVALID,118.08,VALID,0.100563,VALID,23.7212,VALID,35,VALID,0,
2010-08-31, 03:45:05,VALID,1004.46,VALID,0,INVALID,118.08,VALID,0,VALID,23.7,VALID,35,VALID,0,
2010-08-31, 03:46:05,VALID,1004.45,VALID,0,INVALID,118.072,VALID,0.100563,VALID,23.7194,VALID,35,VALID,0,
2010-08-31, 03:47:05,VALID,1004.46,VALID,0,INVALID,118.087,VALID,0,VALID,23.7212,VALID,35,VALID,0,
2010-08-31, 03:48:05,VALID,1004.45,VALID,0,INVALID,118.103,VALID,0.100563,VALID,23.7212,VALID,35,VALID,0,